Weather History for Kodiak, AK

Change the Weather History Date:

Friday, August 30, 2013

  Actual Average Record
Temperature  
Mean Temperature 59 °F 54 °F  
Max Temperature 66 °F 60 °F 70 °F (1987)
Min Temperature 52 °F 47 °F 36 °F (1973)
Degree Days  
Heating Degree Days 6 11  
Month to date heating degree days 259 292  
Since 1 June heating degree days 801 1079  
Since 1 July heating degree days 470 618  
Cooling Degree Days 0    
Month to date cooling degree days 0  
Year to date cooling degree days 6  
Since 1 June cooling degree days 6  
Growing Degree Days 10 (Base 50)    
Moisture  
Dew Point 53 °F    
Average Humidity 0    
Maximum Humidity 0    
Minimum Humidity 0    
Precipitation  
Precipitation 0.05 in 0.17 in 2.23 in (1963)
Month to date precipitation 9.29 4.38  
Year to date precipitation 39.90 46.61  
Snow  
Snow 0.00 in 0.00 in 0.00 in (2013)
Month to date snowfall 0.0 0.0  
Since 1 June snowfall 0.0 0.0  
Since 1 July snowfall 0.0 0.0  
Snow Depth 0.00 in    
Sea Level Pressure  
Sea Level Pressure 29.93 in    
Wind  
Wind Speed 7 mph (NNW)    
Max Wind Speed 17 mph    
Max Gust Speed 22 mph    
Visibility 10 miles    
Events Rain    
T = Trace of Precipitation, MM = Missing Value Source: NWS Daily Summary

Daily Weather History Graph

Daily Weather History Graph

Search for Another Location

Airport:

Trip Planner

Search our weather history database for the weather conditions in past years. The results will help you decide how hot, cold, wet, or windy it might be!

Date:

Astronomy

Aug. 30, 2013 Rise Set
Actual Time 7:07 AM AKDT 9:12 PM AKDT
Civil Twilight 6:25 AM AKDT 9:53 PM AKDT
Nautical Twilight 5:31 AM AKDT 10:47 PM AKDT
Astronomical Twilight 4:25 AM AKDT 11:52 PM AKDT
Moon 1:13 AM AKDT (8/30) 6:13 PM AKDT (8/30)
Length of Visible Light 15h 28m
Length of Day
14h 04m
Waning Crescent, 28% of the Moon is Illuminated
Aug 30
Waning Crescent
Sep 5
New
Sep 12
First Quarter
Sep 19
Full
Sep 26
Last Quarter

Hourly Weather History & Observations

Time (AKDT) Temp. Dew Point Humidity Pressure Visibility Wind Dir Wind Speed Gust Speed Precip Events Conditions
12:25 AM 55.4 °F 53.6 °F 94% 29.78 in 10.0 mi North 6.9 mph - 0.00 in   Overcast
12:53 AM 57.0 °F 54.0 °F 89% 29.80 in 5.0 mi North 6.9 mph - 0.00 in Rain Light Rain
1:43 AM 55.4 °F 53.6 °F 94% 29.83 in 10.0 mi NNW 11.5 mph - 0.05 in   Overcast
1:53 AM 55.9 °F 54.0 °F 93% 29.84 in 9.0 mi North 8.1 mph 16.1 mph 0.05 in   Overcast
2:53 AM 55.9 °F 54.0 °F 93% 29.84 in 9.0 mi NE 12.7 mph - 0.00 in   Overcast
3:53 AM 55.9 °F 54.0 °F 93% 29.86 in 8.0 mi North 13.8 mph 21.9 mph N/A   Overcast
4:15 AM 55.4 °F 53.6 °F 94% 29.87 in 5.0 mi North 6.9 mph - N/A   Overcast
4:53 AM 55.0 °F 53.1 °F 93% 29.89 in 8.0 mi North 6.9 mph - N/A   Overcast
5:19 AM 55.4 °F 53.6 °F 94% 29.89 in 10.0 mi NNW 9.2 mph - N/A   Overcast
5:41 AM 55.4 °F 53.6 °F 94% 29.90 in 10.0 mi NW 5.8 mph - N/A   Overcast
5:53 AM 55.9 °F 54.0 °F 93% 29.91 in 10.0 mi NNW 4.6 mph - N/A   Overcast
6:01 AM 55.4 °F 53.6 °F 94% 29.90 in 10.0 mi NNW 3.5 mph - N/A   Overcast
6:13 AM 57.2 °F 53.6 °F 88% 29.91 in 10.0 mi NW 9.2 mph - N/A   Overcast
6:28 AM 57.2 °F 53.6 °F 88% 29.91 in 10.0 mi WNW 9.2 mph - N/A   Overcast
6:53 AM 55.9 °F 53.1 °F 90% 29.92 in 10.0 mi NW 9.2 mph - N/A   Overcast
7:53 AM 55.9 °F 53.1 °F 90% 29.94 in 10.0 mi WNW 11.5 mph - N/A   Mostly Cloudy
8:20 AM 55.4 °F 53.6 °F 94% 29.94 in 10.0 mi NW 6.9 mph - N/A   Mostly Cloudy
8:53 AM 57.9 °F 53.1 °F 84% 29.95 in 10.0 mi NW 8.1 mph - N/A   Mostly Cloudy
9:53 AM 59.0 °F 53.1 °F 81% 29.96 in 10.0 mi WNW 9.2 mph - N/A   Mostly Cloudy
10:53 AM 60.1 °F 52.0 °F 75% 29.97 in 10.0 mi WNW 12.7 mph - N/A   Scattered Clouds
11:53 AM 62.1 °F 52.0 °F 70% 29.98 in 10.0 mi WNW 11.5 mph - N/A   Scattered Clouds
12:53 PM 64.0 °F 52.0 °F 65% 29.98 in 10.0 mi WNW 5.8 mph - N/A   Scattered Clouds
1:53 PM 63.0 °F 54.0 °F 72% 29.99 in 10.0 mi East 5.8 mph - N/A   Scattered Clouds
2:53 PM 64.0 °F 52.0 °F 65% 29.99 in 10.0 mi East 5.8 mph - N/A   Mostly Cloudy
3:53 PM 63.0 °F 52.0 °F 67% 29.99 in 10.0 mi ESE 6.9 mph - N/A   Mostly Cloudy
4:53 PM 61.0 °F 52.0 °F 72% 29.99 in 10.0 mi Calm Calm - N/A   Mostly Cloudy
5:53 PM 61.0 °F 52.0 °F 72% 29.99 in 10.0 mi Calm Calm - N/A   Overcast
6:53 PM 61.0 °F 51.1 °F 70% 30.00 in 10.0 mi NNE 4.6 mph - N/A   Mostly Cloudy
7:53 PM 60.1 °F 52.0 °F 75% 29.99 in 10.0 mi NE 3.5 mph - N/A   Mostly Cloudy
8:53 PM 59.0 °F 53.1 °F 81% 30.00 in 10.0 mi West 4.6 mph - N/A   Overcast
9:53 PM 57.9 °F 52.0 °F 81% 30.00 in 10.0 mi WNW 4.6 mph - 0.00 in   Overcast
10:53 PM 57.0 °F 52.0 °F 83% 30.00 in 10.0 mi West 3.5 mph - N/A   Overcast
11:53 PM 53.1 °F 50.0 °F 89% 30.01 in 10.0 mi West 8.1 mph - N/A   Overcast